This demonstration page uses our WeatherBlox Daily Observations layout. Learn more.

Left ArrowRight Arrow

Hourly Observations for July 1, 2016

Temp ( °F °C ) Dew Point ( °F °C ) Humidity (%) Winds ( mph kmh ) Pressure ( in mb ) Visibility ( mi km ) Precip ( " mm )
12:51 am 00:51 Mostly Clear 73 22.8 64 17.8 74 74 E 10 17 29.88 1012 10 16 0.00 0.00
1:51 am 01:51 Mostly Cloudy 73 22.8 62 16.7 69 69 E 12 19 29.87 1011 10 16 0.00 0.00
2:51 am 02:51 Cloudy 74 23.3 60 15.6 62 62 E 10 17 29.87 1011 10 16 0.00 0.00
3:51 am 03:51 Cloudy 72 22.2 62 16.7 71 71 ESE 13 20 29.87 1012 10 16 0.00 0.00
4:51 am 04:51 Cloudy 72 22.2 62 16.7 71 71 ESE 9 15 29.88 1012 10 16 0.00 0.00
5:51 am 05:51 Cloudy with Light Rain 68 20 66 18.9 93 93 SSE 12 19 29.92 1013 6 10 0.00 0.03
6:02 am 06:02 Cloudy with Light Rain 68 20 66 18.9 93 93 SE 10 17 29.91 1013 3 4 0.01 0.25
6:15 am 06:15 Cloudy with Light Rain 67 19.4 65 18.3 93 93 SE 10 17 29.94 1014 6 10 0.04 1.02
6:51 am 06:51 Cloudy with Light Rain 67 19.4 66 18.9 97 97 E 7 11 29.94 1014 8 13 0.09 2.29
7:17 am 07:17 Cloudy with Rain 67 19.4 65 18.3 93 93 E 7 11 29.97 1015 3 4 0.07 1.78
7:27 am 07:27 Cloudy with Light Rain 67 19.4 65 18.3 93 93 E 6 9 29.97 1015 3 5 0.09 2.29
7:32 am 07:32 Cloudy with Heavy Rain 67 19.4 65 18.3 93 93 E 7 11 29.97 1015 2 3 0.12 3.05
7:51 am 07:51 Cloudy with Rain 67 19.4 65 18.3 93 93 E 6 9 29.96 1014 3 4 0.24 6.10
7:58 am 07:58 Cloudy with Rain 67 19.4 66 18.9 97 97 E 6 9 29.97 1015 3 5 0.03 0.76
8:18 am 08:18 Cloudy with Light Rain 68 20 66 18.9 93 93 ESE 6 9 29.97 1015 10 16 0.05 1.27
8:51 am 08:51 Cloudy 69 20.6 66 18.9 90 90 SE 5 7 29.96 1015 10 16 0.05 1.27
9:51 am 09:51 Cloudy 73 22.8 64 17.8 74 74 E 9 15 29.96 1014 10 16 0.00 0.00
10:51 am 10:51 Cloudy 72 22.2 66 18.9 82 82 E 12 19 29.96 1014 10 16 0.03 0.76
11:51 am 11:51 Mostly Sunny 76 24.4 66 18.9 72 72 E 13 20 29.92 1013 10 16 0.00 0.03
12:51 pm 12:51 Cloudy 77 25 66 18.9 69 69 E 12 19 29.91 1013 10 16 0.00 0.00
1:24 pm 13:24 Cloudy with Nearby Thunderstorms 76 24.4 68 20 77 77 SE 7 11 29.88 1012 10 16 0.01 0.25
1:31 pm 13:31 Cloudy with Nearby Thunderstorms 76 24.4 68 20 77 77 Calm 29.88 1012 10 16 0.01 0.25
1:42 pm 13:42 Cloudy with Nearby Thunderstorms 68 20 66 18.9 93 93 N 15 24 29.91 1013 1 2 0.02 0.51
1:49 pm 13:49 Cloudy with Strong Thunderstorms 66 19 64 18 94 94 N 17 28 29.94 1014 1 1 0.35 8.89
1:50 pm 13:50 Cloudy with Strong Thunderstorms 66 18.9 65 18.3 96 96 N 17 28 29.94 1014 1 1 0.42 10.67
1:58 pm 13:58 Mostly Cloudy with Thunderstorms 67 19.4 66 18.9 97 97 NNW 12 19 29.94 1014 3 4 0.04 1.02
2:05 pm 14:05 Cloudy with Thunderstorms 69 20.6 65 18.3 87 87 N 9 15 29.91 1013 9 14 0.04 1.02
2:13 pm 14:13 Cloudy with Thunderstorms 69 20.6 65 18.3 87 87 N 3 6 29.88 1012 10 16 0.04 1.02
2:22 pm 14:22 Cloudy 70 21.1 65 18.3 84 84 N 3 6 29.88 1012 10 16 0.04 1.02
2:44 pm 14:44 Cloudy with Light Rain 70 21.1 66 18.9 87 87 NW 7 11 29.91 1013 10 16 0.04 1.02
2:51 pm 14:51 Cloudy with Light Rain 70 21.1 66 18.9 87 87 NNW 8 13 29.94 1014 10 16 0.04 1.02
3:51 pm 15:51 Sunny 76 24.4 62 16.7 62 62 NNW 7 11 29.90 1012 10 16 0.01 0.25
4:51 pm 16:51 Sunny 78 25.6 61 16.1 56 56 VRB 5 7 29.88 1012 10 16 0.00 0.00
5:51 pm 17:51 Sunny 78 25.6 63 17.2 60 60 W 3 6 29.88 1012 10 16 0.00 0.00
6:51 pm 18:51 Sunny 78 25.6 63 17.2 60 60 NNW 3 6 29.91 1013 10 16 0.00 0.00
7:51 pm 19:51 Clear 74 23.3 66 18.9 76 76 SE 5 7 29.90 1012 10 16 0.00 0.00
8:51 pm 20:51 Clear 72 22.2 67 19.4 84 84 Calm 29.92 1013 10 16 0.00 0.00
9:51 pm 21:51 Clear 72 22.2 66 18.9 82 82 Calm 29.96 1014 10 16 0.00 0.00
10:51 pm 22:51 Clear 70 21.1 67 19.4 90 90 E 6 9 29.96 1015 10 16 0.00 0.00
11:51 pm 23:51 Clear 70 21.1 65 18.3 84 84 E 6 9 29.94 1014 10 16 0.00 0.00

Powered by AerisWeather